STARLINK-2667 (48663 NORAD) Tracking and Keplerian Element Data

This shows tracking and keplerian element data for the satellite.

Feedback or suggestion? Click here.




ElementValue
Catalog48663
NameSTARLINK-2667
Epoch Orbit1151
Epoch Day214.91667824
Epoch Year2021
RAAN92.511
Inclination53.0503
Eccentricity0.0001514
Argument of Perigee70.6092
Mean Anonmoly94.1263
Mean Motion15.14087061
Decay Rate-0.0092464
L11 48663U 21044AB 21214.91667824 -.00924640 00000-0 -54272-1 0 9999
L22 48663 53.0503 92.5110 0001514 70.6092 94.1263 15.14087061 11514

Live tracking and technical data element details for STARLINK-2667 (NORAD 48663). STARLINK-2667 can be tracked NOW for your location showing map with azimuth and elevation plus other details from your city location.

Track the satellite on the map from your city or location and see movement details for azimuth, elevation, latitude, longitude, range, height, and movement on the map or in text.







IsCatalogInMostPopularTable: catalog: 48663, numindb: 15
Update: records affected: 1



GetName: 48663 STARLINK-2667

Hit Count: updated at: Wed, 04 Aug 2021 00:16:36 GMT